• In Netherlands
  • List of Countries
  • For 7 days
  • Water Temperature
  • Satellite Maps
  • Weather Map
  • Weather Widgets
  • user-avatar
    Login

    Hourly Weather Stepanakert

    Today, 27 April, Thursday

    Time Temperature Precipitation Wind Pressure Humidity
    00:00 +3°C° 0 mm 1 mps 701 mmHg 85%
    01:00 +3°C° 0 mm 1 mps 701 mmHg 85%
    02:00 +3°C° 0 mm 1 mps 701 mmHg 84%
    03:00 +3°C° 0 mm 1 mps 700 mmHg 84%
    04:00 +4°C° 0 mm 1 mps 701 mmHg 80%
    05:00 +4°C° 0 mm 1 mps 701 mmHg 75%
    06:00 +5°C° 0 mm 1 mps 701 mmHg 71%
    07:00 +7°C° 0 mm 1 mps 701 mmHg 64%
    08:00 +9°C° 0 mm 1 mps 701 mmHg 58%
    09:00 +10°C° 0 mm 2 mps 701 mmHg 52%
    10:00 +12°C° 0 mm 2 mps 701 mmHg 51%
    11:00 +12°C° 0 mm 3 mps 701 mmHg 50%
    12:00 +13°C° 0 mm 3 mps 701 mmHg 48%
    13:00 +13°C° 0 mm 3 mps 700 mmHg 50%
    14:00 +13°C° 0 mm 3 mps 700 mmHg 52%
    15:00 +13°C° 0 mm 3 mps 700 mmHg 54%
    16:00 +12°C° 0 mm 3 mps 699 mmHg 59%
    17:00 +12°C° 0 mm 2 mps 699 mmHg 64%
    18:00 +10°C° 0 mm 2 mps 699 mmHg 69%
    19:00 +9°C° 0 mm 2 mps 699 mmHg 76%
    20:00 +8°C° 0 mm 1 mps 700 mmHg 82%
    21:00 +6°C° 0 mm 1 mps 700 mmHg 88%
    22:00 +6°C° 0 mm 1 mps 700 mmHg 89%
    23:00 +5°C° 0 mm 1 mps 699 mmHg 90%

    Tomorrow, 28 April, Friday

    Time Temperature Precipitation Wind Pressure Humidity
    00:00 +5°C° 0 mm 1 mps 699 mmHg 90%
    01:00 +5°C° 0 mm 1 mps 699 mmHg 90%
    02:00 +4°C° 0 mm 1 mps 699 mmHg 89%
    03:00 +4°C° 0 mm 1 mps 699 mmHg 89%
    04:00 +5°C° 0 mm 1 mps 699 mmHg 86%
    05:00 +6°C° 0 mm 1 mps 699 mmHg 82%
    06:00 +7°C° 0 mm 1 mps 699 mmHg 78%
    07:00 +9°C° 0 mm 1 mps 699 mmHg 70%
    08:00 +11°C° 0 mm 1 mps 699 mmHg 61%
    09:00 +13°C° 0 mm 2 mps 699 mmHg 52%
    10:00 +15°C° 0 mm 2 mps 699 mmHg 50%
    11:00 +16°C° 0 mm 2 mps 699 mmHg 48%
    12:00 +17°C° 0 mm 2 mps 698 mmHg 46%
    13:00 +17°C° 0 mm 2 mps 698 mmHg 47%
    14:00 +17°C° 0 mm 2 mps 697 mmHg 48%
    15:00 +18°C° 0 mm 2 mps 697 mmHg 48%
    16:00 +17°C° 0 mm 2 mps 696 mmHg 54%
    17:00 +15°C° 0 mm 2 mps 696 mmHg 60%
    18:00 +14°C° 0 mm 1 mps 696 mmHg 66%
    19:00 +12°C° 0 mm 1 mps 696 mmHg 72%
    20:00 +10°C° 0 mm 1 mps 696 mmHg 78%
    21:00 +8°C° 0 mm 1 mps 696 mmHg 84%
    22:00 +8°C° 0 mm 1 mps 695 mmHg 84%
    23:00 +8°C° 0 mm 1 mps 695 mmHg 84%

    Day after tomorrow, 29 April, Saturday

    Time Temperature Precipitation Wind Pressure Humidity
    00:00 +8°C° 0 mm 1 mps 695 mmHg 85%
    01:00 +8°C° 0 mm 1 mps 695 mmHg 85%
    02:00 +7°C° 0 mm 1 mps 694 mmHg 86%
    03:00 +7°C° 0 mm 1 mps 694 mmHg 86%
    04:00 +8°C° 0 mm 1 mps 694 mmHg 84%
    05:00 +9°C° 0 mm 1 mps 694 mmHg 81%
    06:00 +10°C° 0 mm 1 mps 694 mmHg 78%
    07:00 +13°C° 0 mm 1 mps 695 mmHg 68%
    08:00 +15°C° 0 mm 1 mps 695 mmHg 59%
    09:00 +17°C° 0 mm 2 mps 695 mmHg 49%
    10:00 +19°C° 0 mm 2 mps 695 mmHg 47%
    11:00 +20°C° 0 mm 2 mps 695 mmHg 45%
    12:00 +21°C° 0 mm 2 mps 694 mmHg 43%
    13:00 +21°C° 0.1 mm 2 mps 694 mmHg 43%
    14:00 +21°C° 0.1 mm 2 mps 693 mmHg 43%
    15:00 +23°C° 0.1 mm 2 mps 693 mmHg 44%
    16:00 +20°C° 0.2 mm 2 mps 693 mmHg 50%
    17:00 +19°C° 0.2 mm 2 mps 693 mmHg 57%
    18:00 +19°C° 0.2 mm 1 mps 693 mmHg 63%
    19:00 +16°C° 0.3 mm 1 mps 693 mmHg 69%
    20:00 +14°C° 0.3 mm 1 mps 693 mmHg 76%
    21:00 +12°C° 0.3 mm 1 mps 693 mmHg 82%
    22:00 +11°C° 0.1 mm 1 mps 692 mmHg 83%
    23:00 +11°C° 0.1 mm 1 mps 692 mmHg 84%

    30 April, Sunday

    Time Temperature Precipitation Wind Pressure Humidity
    00:00 +10°C° 0.1 mm 1 mps 692 mmHg 84%
    01:00 +10°C° 0 mm 1 mps 692 mmHg 84%
    02:00 +10°C° 0 mm 1 mps 692 mmHg 84%
    03:00 +9°C° 0 mm 1 mps 692 mmHg 84%
    04:00 +10°C° 0 mm 1 mps 692 mmHg 80%
    05:00 +11°C° 0 mm 1 mps 692 mmHg 77%
    06:00 +12°C° 0 mm 1 mps 693 mmHg 74%
    07:00 +15°C° 0 mm 1 mps 693 mmHg 65%
    08:00 +17°C° 0 mm 2 mps 693 mmHg 56%
    09:00 +20°C° 0 mm 2 mps 694 mmHg 47%
    10:00 +21°C° 0 mm 2 mps 694 mmHg 44%
    11:00 +23°C° 0 mm 2 mps 694 mmHg 41%
    12:00 +24°C° 0 mm 3 mps 693 mmHg 37%
    13:00 +25°C° 0 mm 2 mps 693 mmHg 37%
    14:00 +25°C° 0 mm 2 mps 693 mmHg 37%
    15:00 +25°C° 0 mm 2 mps 692 mmHg 37%
    16:00 +24°C° 0.1 mm 2 mps 692 mmHg 45%
    17:00 +22°C° 0.1 mm 1 mps 692 mmHg 52%
    18:00 +21°C° 0.1 mm 1 mps 692 mmHg 59%
    19:00 +19°C° 0.1 mm 1 mps 692 mmHg 65%
    20:00 +16°C° 0.1 mm 1 mps 693 mmHg 70%
    21:00 +14°C° 0.1 mm 1 mps 693 mmHg 76%
    22:00 +13°C° 0 mm 1 mps 693 mmHg 77%
    23:00 +13°C° 0 mm 1 mps 693 mmHg 77%

    1 May, Monday

    Time Temperature Precipitation Wind Pressure Humidity
    00:00 +13°C° 0 mm 1 mps 693 mmHg 78%
    01:00 +13°C° 0 mm 1 mps 692 mmHg 78%
    02:00 +12°C° 0 mm 1 mps 692 mmHg 79%
    03:00 +12°C° 0 mm 1 mps 692 mmHg 79%
    04:00 +13°C° 0 mm 1 mps 692 mmHg 75%
    05:00 +13°C° 0 mm 1 mps 693 mmHg 72%
    06:00 +14°C° 0 mm 1 mps 693 mmHg 68%
    07:00 +18°C° 0 mm 1 mps 694 mmHg 60%
    08:00 +20°C° 0 mm 1 mps 694 mmHg 52%
    09:00 +21°C° 0 mm 2 mps 695 mmHg 44%
    10:00 +23°C° 0.1 mm 2 mps 695 mmHg 42%
    11:00 +24°C° 0.1 mm 2 mps 695 mmHg 40%
    12:00 +25°C° 0.1 mm 2 mps 694 mmHg 38%
    13:00 +26°C° 0.1 mm 2 mps 694 mmHg 39%
    14:00 +26°C° 0.1 mm 2 mps 694 mmHg 39%
    15:00 +26°C° 0.1 mm 2 mps 694 mmHg 40%
    16:00 +25°C° 0.1 mm 2 mps 694 mmHg 46%
    17:00 +23°C° 0.1 mm 2 mps 694 mmHg 52%
    18:00 +22°C° 0.1 mm 1 mps 694 mmHg 58%
    19:00 +20°C° 0.1 mm 1 mps 694 mmHg 65%
    20:00 +16°C° 0.1 mm 1 mps 694 mmHg 71%
    21:00 +14°C° 0.1 mm 1 mps 694 mmHg 78%
    22:00 +14°C° 0 mm 1 mps 693 mmHg 78%
    23:00 +13°C° 0 mm 1 mps 693 mmHg 78%

    2 May, Tuesday

    Time Temperature Precipitation Wind Pressure Humidity
    00:00 +13°C° 0 mm 1 mps 693 mmHg 77%
    01:00 +13°C° 0 mm 1 mps 693 mmHg 78%
    02:00 +13°C° 0 mm 1 mps 693 mmHg 78%
    03:00 +13°C° 0 mm 1 mps 693 mmHg 78%
    04:00 +13°C° 0 mm 1 mps 693 mmHg 76%
    05:00 +14°C° 0 mm 1 mps 694 mmHg 73%
    06:00 +15°C° 0 mm 1 mps 694 mmHg 71%
    07:00 +18°C° 0 mm 1 mps 694 mmHg 62%
    08:00 +20°C° 0 mm 1 mps 695 mmHg 53%
    09:00 +22°C° 0 mm 1 mps 695 mmHg 44%
    10:00 +23°C° 0 mm 2 mps 695 mmHg 42%
    11:00 +24°C° 0 mm 2 mps 694 mmHg 39%
    12:00 +25°C° 0 mm 3 mps 694 mmHg 36%
    13:00 +25°C° 0.1 mm 3 mps 694 mmHg 37%
    14:00 +25°C° 0.1 mm 3 mps 694 mmHg 38%
    15:00 +25°C° 0.1 mm 3 mps 693 mmHg 39%
    16:00 +24°C° 0.1 mm 3 mps 693 mmHg 45%
    17:00 +21°C° 0.1 mm 2 mps 693 mmHg 51%
    18:00 +20°C° 0.1 mm 1 mps 693 mmHg 57%
    19:00 +19°C° 0.3 mm 1 mps 693 mmHg 61%
    20:00 +18°C° 0.3 mm 1 mps 693 mmHg 65%
    21:00 +15°C° 0.3 mm 1 mps 693 mmHg 69%
    22:00 +15°C° 0.7 mm 1 mps 693 mmHg 71%
    23:00 +15°C° 0.7 mm 1 mps 693 mmHg 73%
    Show more